STARLINK-5088 (54000 NORAD) Tracking and Keplerian Element Data

This shows tracking and keplerian element data for the satellite.

Feedback or suggestion? Click here.




ElementValue
Catalog54000
NameSTARLINK-5088
Epoch Orbit130
Epoch Day324.91667824
Epoch Year2022
RAAN224.1789
Inclination53.2157
Eccentricity0.000195
Argument of Perigee25.9731
Mean Anonmoly175.874
Mean Motion15.73218251
Decay Rate-0.00067988
L11 54000U 22125AN 22324.91667824 -.00067988 00000+0 -48349-3 0 9997
L22 54000 53.2157 224.1789 0001950 25.9731 175.8740 15.73218251 1300



Live tracking and technical data element details for STARLINK-5088 (NORAD 54000). STARLINK-5088 can be tracked NOW for your location showing map with azimuth and elevation plus other details from your city location.







IsCatalogInMostPopularTable: catalog: 54000, numindb: 3
Update: records affected: 1



GetName: 54000 STARLINK-5088

Hit Count: updated at: Mon, 28 Nov 2022 21:24:36 GMT